EW8784 Weather Reports


time (UTC)temp
C
wind
direction
speed
KPH
gust
KPH
rain 1hr
cm
rain 24hr
cm
rain mn
cm
humidity
%
barometer
mb
20260901160006 26 101 1.6 3.2 0.00 0.25 0.00 100 1017.6
20260901154507 26 115 4.8 11.3 0.00 0.25 0.00 100 1017.8
20260901153003 26 165 4.8 9.7 0.00 0.25 0.00 100 1018.1
20260901151506 26 41 4.8 8.0 0.00 0.25 0.00 100 1018.3
20260901144503 26 132 1.6 3.2 0.00 0.25 0.25 100 1018.7
20260901143002 26 160 3.2 4.8 0.00 0.25 0.25 100 1018.8
20260901141502 26 70 3.2 4.8 0.00 0.25 0.25 100 1018.9
20260901140009 26 65 1.6 3.2 0.00 0.25 0.25 100 1018.8
20260901134503 26 49 4.8 6.4 0.00 0.25 0.25 100 1018.8
20260901133006 26 134 6.4 12.9 0.00 0.25 0.25 100 1018.7
20260901130009 26 160 4.8 11.3 0.00 0.25 0.25 100 1018.8
20260901124504 26 94 3.2 4.8 0.00 0.25 0.25 100 1018.8
20260901123003 26 93 0.0 0.0 0.00 0.28 0.25 100 1018.9
20260901120005 26 77 3.2 4.8 0.00 0.28 0.25 100 1018.7
20260901113003 26 69 1.6 1.6 0.00 0.28 0.25 100 1018.6
20260901111506 27 90 4.8 8.0 0.00 0.28 0.25 100 1018.5
20260901110007 27 124 1.6 3.2 0.00 0.28 0.25 100 1018.5
20260901104503 27 72 0.0 1.6 0.00 0.28 0.25 100 1018.3
20260901103003 27 134 1.6 11.3 0.00 0.28 0.25 100 1018.2
20260901101507 27 87 3.2 6.4 0.00 0.28 0.25 100 1018.0
20260901100003 27 169 4.8 4.8 0.00 0.28 0.25 100 1018.0
20260901094505 27 45 0.0 0.0 0.00 0.28 0.25 100 1017.8
20260901093007 27 83 3.2 4.8 0.00 0.28 0.25 100 1017.7
20260901091503 27 125 6.4 12.9 0.00 0.28 0.25 100 1017.5
20260901090006 27 120 3.2 9.7 0.00 0.28 0.25 100 1017.4
20260901084504 27 104 4.8 9.7 0.00 0.28 0.25 100 1017.3
20260901083003 28 90 3.2 4.8 0.00 0.28 0.25 100 1017.1
20260901081506 28 58 4.8 8.0 0.00 0.28 0.25 100 1017.2
20260901080003 28 68 8.0 11.3 0.00 0.25 0.23 100 1017.2
20260901074506 28 150 6.4 14.5 0.00 0.25 0.23 100 1017.1
20260901071504 28 55 4.8 11.3 0.00 0.25 0.23 96 1016.9
20260901064506 29 97 6.4 12.9 0.00 0.25 0.23 85 1016.8
20260901063010 30 97 3.2 8.0 0.00 0.25 0.23 71 1016.7
20260901060007 30 333 0.0 0.0 0.00 0.25 0.23 69 1016.9
20260901054508 30 345 3.2 6.4 0.00 0.25 0.23 71 1016.8
20260901053005 30 170 0.0 0.0 0.00 0.25 0.23 69 1016.8
20260901051508 30 87 4.8 6.4 0.00 0.30 0.23 54 1016.9
20260901044508 31 117 8.0 9.7 0.00 0.30 0.23 51 1017.0
20260901043005 31 159 3.2 6.4 0.00 0.33 0.23 51 1017.0
20260901041507 31 87 9.7 14.5 0.00 0.33 0.23 53 1017.1
20260901034503 31 37 6.4 9.7 0.00 0.33 0.23 52 1017.2
20260901031504 30 359 6.4 11.3 0.00 0.30 0.20 64 1017.6
20260901030007 30 52 1.6 6.4 0.00 0.30 0.20 72 1017.8
20260901024504 30 93 9.7 14.5 0.00 0.30 0.20 76 1018.0
20260901021504 29 163 8.0 12.9 0.00 0.20 0.10 93 1018.2
20260901014505 28 90 8.0 14.5 0.00 0.13 0.03 100 1018.7
20260901013006 28 73 8.0 16.1 0.00 0.13 0.03 100 1018.8
20260901011502 27 68 9.7 16.1 0.00 0.13 0.03 100 1018.9
20260901004505 27 114 6.4 9.7 0.00 0.13 0.03 100 1018.8
20260901003002 26 4 6.4 11.3 0.00 0.13 0.03 100 1018.9
20260901001503 26 141 6.4 9.7 0.00 0.13 0.03 100 1019.0
20260831234503 26 152 8.0 14.5 0.00 0.13 0.03 100 1019.1
20260831233006 26 120 3.2 9.7 0.00 0.13 0.03 100 1019.2
20260831231502 25 46 6.4 12.9 0.00 0.13 0.03 100 1019.2
20260831230005 25 44 4.8 14.5 0.00 0.10 0.00 100 1019.1
20260831223002 25 110 8.0 12.9 0.00 0.10 0.00 100 1019.0
20260831221505 25 89 8.0 14.5 0.00 0.10 0.00 100 1019.1
20260831220008 24 75 4.8 8.0 0.00 0.10 0.00 100 1019.1
20260831214504 24 77 4.8 8.0 0.00 0.10 0.00 100 1019.0
20260831213006 24 152 8.0 12.9 0.00 0.10 0.00 100 1019.0
20260831211506 24 86 6.4 11.3 0.00 0.10 0.00 100 1018.8
20260831210004 24 82 6.4 9.7 0.00 0.10 0.00 100 1018.7
20260831204505 24 77 4.8 6.4 0.00 0.10 0.00 100 1018.7
20260831203007 24 90 6.4 11.3 0.00 0.10 0.00 100 1018.7
20260831201502 23 56 9.7 12.9 0.00 0.10 0.00 100 1018.6
20260831200005 23 122 4.8 12.9 0.00 0.10 0.00 100 1018.5
20260831194502 24 96 6.4 9.7 0.00 0.10 0.00 100 1018.6
20260831193005 24 113 3.2 8.0 0.00 0.10 0.00 100 1018.6
20260831184505 24 58 1.6 1.6 0.00 0.10 0.00 100 1018.6
20260831181506 25 28 1.6 3.2 0.00 0.10 0.00 100 1018.8
20260831174502 25 55 3.2 8.0 0.00 0.10 0.00 100 1018.9
20260831173004 24 72 6.4 8.0 0.00 0.10 0.00 100 1018.9
20260831171506 24 39 1.6 1.6 0.00 0.10 0.00 100 1018.8
20260831170003 24 63 4.8 6.4 0.00 0.10 0.00 100 1018.8
20260831164506 25 76 0.0 0.0 0.00 0.10 0.00 100 1019.0
20260831163007 25 98 3.2 4.8 0.00 0.10 0.00 100 1018.8
20260831161502 24 359 0.0 4.8 0.00 0.10 0.00 100 1018.8